| time (UTC) | temp F | wind direction | speed MPH | gust MPH | rain 1hr in | rain 24hr in | rain mn in | humidity % | barometer mb |
| 20260507140016 | 0 | 0.0 | 0.0 | 0.00 | 0.00 | 0.00 | 1017.6 | ||
| 20260507134512 | 0 | 0.0 | 0.0 | 0.00 | 0.00 | 0.00 | 1018.1 | ||
| 20260507133007 | 0 | 0.0 | 0.0 | 0.00 | 0.00 | 0.00 | 1018.1 | ||
| 20260507131506 | 0 | 0.0 | 0.0 | 0.00 | 0.00 | 0.00 | 1018.2 | ||
| 20260507130058 | 0 | 0.0 | 0.0 | 0.00 | 0.00 | 0.00 | 1018.4 | ||
| 20260507124556 | 0 | 0.0 | 0.0 | 0.00 | 0.00 | 0.00 | 1018.7 | ||
| 20260507123104 | 0 | 0.0 | 0.0 | 0.00 | 0.00 | 0.00 | 1018.8 | ||
| 20260507121547 | 0 | 0.0 | 0.0 | 0.00 | 0.00 | 0.00 | 1018.8 | ||
| 20260507120041 | 0 | 0.0 | 0.0 | 0.00 | 0.00 | 0.00 | 1018.7 | ||
| 20260507114536 | 0 | 0.0 | 0.0 | 0.00 | 0.00 | 0.00 | 1019.1 | ||
| 20260507113033 | 37 | 188 | 0.0 | 3.0 | 0.00 | 0.00 | 0.00 | 94 | 1019.0 |
| 20260507111532 | 37 | 294 | 0.0 | 1.0 | 0.00 | 0.00 | 0.00 | 94 | 1019.0 |
| 20260507110031 | 37 | 227 | 0.0 | 2.0 | 0.00 | 0.00 | 0.00 | 94 | 1019.1 |
| 20260507104528 | 37 | 145 | 0.0 | 2.0 | 0.00 | 0.00 | 0.00 | 95 | 1019.3 |
| 20260507103030 | 37 | 253 | 0.0 | 5.0 | 0.00 | 0.00 | 0.00 | 95 | 1019.3 |
| 20260507101527 | 36 | 230 | 0.0 | 4.0 | 0.00 | 0.00 | 0.00 | 95 | 1019.3 |
| 20260507100034 | 36 | 218 | 0.0 | 2.0 | 0.00 | 0.00 | 0.00 | 94 | 1019.5 |
| 20260507094523 | 36 | 228 | 0.0 | 0.0 | 0.00 | 0.00 | 0.00 | 94 | 1019.7 |
| 20260507093020 | 37 | 237 | 0.0 | 1.0 | 0.00 | 0.00 | 0.00 | 94 | 1019.8 |
| 20260507091522 | 37 | 287 | 0.0 | 1.0 | 0.00 | 0.00 | 0.00 | 94 | 1019.8 |
| 20260507090016 | 38 | 235 | 0.0 | 1.0 | 0.00 | 0.00 | 0.00 | 94 | 1019.9 |
| 20260507084516 | 38 | 232 | 0.0 | 1.0 | 0.00 | 0.00 | 0.00 | 94 | 1019.9 |
| 20260507083013 | 38 | 168 | 0.0 | 2.0 | 0.00 | 0.00 | 0.00 | 94 | 1020.1 |
| 20260507081511 | 38 | 214 | 0.0 | 0.0 | 0.00 | 0.00 | 0.00 | 94 | 1020.2 |
| 20260507080010 | 38 | 189 | 0.0 | 0.0 | 0.00 | 0.00 | 0.00 | 94 | 1020.5 |
| 20260507074506 | 38 | 226 | 0.0 | 1.0 | 0.00 | 0.00 | 0.00 | 94 | 1020.7 |
| 20260507073007 | 38 | 236 | 0.0 | 0.0 | 0.00 | 0.00 | 0.00 | 94 | 1021.1 |
| 20260507071503 | 39 | 236 | 0.0 | 0.0 | 0.00 | 0.00 | 0.00 | 94 | 1021.3 |
| 20260507070106 | 39 | 247 | 0.0 | 1.0 | 0.00 | 0.00 | 0.00 | 94 | 1021.4 |
| 20260507064634 | 39 | 232 | 0.0 | 0.0 | 0.00 | 0.00 | 0.00 | 94 | 1021.6 |
| 20260507063114 | 39 | 284 | 0.0 | 0.0 | 0.00 | 0.00 | 0.00 | 94 | 1021.6 |
| 20260507061556 | 39 | 315 | 0.0 | 0.0 | 0.00 | 0.00 | 0.00 | 93 | 1021.8 |
| 20260507060111 | 40 | 337 | 0.0 | 0.0 | 0.00 | 0.00 | 0.00 | 93 | 1021.9 |
| 20260507054559 | 40 | 285 | 0.0 | 0.0 | 0.00 | 0.00 | 0.00 | 93 | 1022.0 |
| 20260507053056 | 41 | 282 | 0.0 | 0.0 | 0.00 | 0.00 | 0.00 | 92 | 1022.2 |
| 20260507051601 | 42 | 346 | 0.0 | 0.0 | 0.00 | 0.00 | 0.00 | 91 | 1022.1 |
| 20260507050048 | 42 | 314 | 0.0 | 0.0 | 0.00 | 0.00 | 0.00 | 91 | 1022.0 |
| 20260507044542 | 42 | 18 | 0.0 | 0.0 | 0.00 | 0.00 | 0.00 | 91 | 1022.0 |
| 20260507043042 | 43 | 306 | 0.0 | 0.0 | 0.00 | 0.00 | 0.00 | 91 | 1022.2 |
| 20260507041541 | 43 | 252 | 0.0 | 0.0 | 0.00 | 0.00 | 0.00 | 91 | 1022.1 |
| 20260507040040 | 43 | 349 | 0.0 | 0.0 | 0.00 | 0.00 | 0.00 | 90 | 1022.1 |
| 20260507034540 | 44 | 358 | 0.0 | 0.0 | 0.00 | 0.00 | 0.00 | 89 | 1022.2 |
| 20260507033040 | 45 | 292 | 0.0 | 0.0 | 0.00 | 0.00 | 0.00 | 88 | 1022.0 |
| 20260507031539 | 46 | 15 | 0.0 | 0.0 | 0.00 | 0.00 | 0.00 | 87 | 1022.1 |
| 20260507030040 | 47 | 3 | 0.0 | 0.0 | 0.00 | 0.00 | 0.00 | 86 | 1022.0 |
| 20260507024538 | 47 | 9 | 0.0 | 0.0 | 0.00 | 0.00 | 0.00 | 85 | 1021.6 |
| 20260507023042 | 47 | 346 | 0.0 | 0.0 | 0.00 | 0.00 | 0.00 | 85 | 1021.5 |
| 20260507021542 | 47 | 359 | 0.0 | 0.0 | 0.00 | 0.00 | 0.00 | 85 | 1021.3 |
| 20260507020039 | 48 | 327 | 0.0 | 0.0 | 0.00 | 0.00 | 0.00 | 84 | 1021.3 |
| 20260507014543 | 49 | 23 | 0.0 | 0.0 | 0.00 | 0.00 | 0.00 | 81 | 1021.1 |
| 20260507013036 | 50 | 338 | 0.0 | 0.0 | 0.00 | 0.00 | 0.00 | 80 | 1020.9 |
| 20260507011539 | 50 | 7 | 0.0 | 0.0 | 0.00 | 0.00 | 0.00 | 78 | 1020.7 |
| 20260507010054 | 51 | 12 | 0.0 | 0.0 | 0.00 | 0.00 | 0.00 | 76 | 1021.1 |
| 20260507004536 | 51 | 20 | 0.0 | 0.0 | 0.00 | 0.00 | 0.00 | 77 | 1020.9 |
| 20260507003034 | 51 | 274 | 0.0 | 0.0 | 0.00 | 0.00 | 0.00 | 76 | 1020.8 |
| 20260507001534 | 51 | 7 | 0.0 | 0.0 | 0.00 | 0.00 | 0.00 | 75 | 1020.9 |
| 20260507000035 | 51 | 285 | 0.0 | 0.0 | 0.00 | 0.00 | 0.00 | 74 | 1020.9 |
| 20260506234533 | 52 | 241 | 0.0 | 1.0 | 0.00 | 0.00 | 0.00 | 73 | 1020.8 |
| 20260506233033 | 52 | 341 | 0.0 | 0.0 | 0.00 | 0.00 | 0.00 | 72 | 1021.1 |
| 20260506231533 | 52 | 303 | 0.0 | 0.0 | 0.00 | 0.00 | 0.00 | 71 | 1021.0 |
| 20260506230036 | 53 | 256 | 0.0 | 0.0 | 0.00 | 0.00 | 0.00 | 71 | 1021.0 |
| 20260506224536 | 53 | 330 | 0.0 | 0.0 | 0.00 | 0.00 | 0.00 | 69 | 1021.0 |
| 20260506223031 | 54 | 349 | 0.0 | 0.0 | 0.00 | 0.00 | 0.00 | 67 | 1021.0 |
| 20260506221529 | 56 | 332 | 0.0 | 0.0 | 0.00 | 0.00 | 0.00 | 65 | 1021.0 |
| 20260506220035 | 56 | 221 | 0.0 | 0.0 | 0.00 | 0.00 | 0.00 | 69 | 1020.9 |
| 20260506214526 | 55 | 118 | 0.0 | 1.0 | 0.00 | 0.00 | 0.00 | 68 | 1021.0 |
| 20260506213024 | 54 | 304 | 0.0 | 0.0 | 0.00 | 0.00 | 0.00 | 68 | 1021.3 |
| 20260506211529 | 53 | 14 | 0.0 | 0.0 | 0.00 | 0.00 | 0.00 | 70 | 1021.5 |
| 20260506210025 | 53 | 321 | 0.0 | 0.0 | 0.00 | 0.00 | 0.00 | 71 | 1021.7 |
| 20260506204519 | 52 | 360 | 0.0 | 0.0 | 0.00 | 0.00 | 0.00 | 71 | 1021.9 |
| 20260506203018 | 52 | 217 | 0.0 | 0.0 | 0.00 | 0.00 | 0.00 | 73 | 1022.0 |
| 20260506201527 | 52 | 16 | 0.0 | 0.0 | 0.00 | 0.00 | 0.00 | 75 | 1022.2 |
| 20260506200016 | 52 | 210 | 0.0 | 0.0 | 0.00 | 0.00 | 0.00 | 74 | 1022.3 |
| 20260506194515 | 51 | 227 | 0.0 | 0.0 | 0.00 | 0.00 | 0.00 | 75 | 1022.6 |
| 20260506193013 | 51 | 106 | 0.0 | 0.0 | 0.00 | 0.00 | 0.00 | 76 | 1022.6 |
| 20260506191512 | 50 | 203 | 0.0 | 0.0 | 0.00 | 0.00 | 0.00 | 77 | 1022.6 |
| 20260506190015 | 50 | 107 | 0.0 | 0.0 | 0.00 | 0.00 | 0.00 | 78 | 1022.8 |
| 20260506184518 | 50 | 114 | 0.0 | 0.0 | 0.00 | 0.00 | 0.00 | 80 | 1022.9 |
| 20260506183006 | 50 | 150 | 0.0 | 0.0 | 0.00 | 0.00 | 0.00 | 82 | 1022.9 |
| 20260506181503 | 49 | 88 | 0.0 | 0.0 | 0.00 | 0.00 | 0.00 | 86 | 1023.0 |
| 20260506180100 | 47 | 29 | 0.0 | 0.0 | 0.00 | 0.00 | 0.00 | 88 | 1023.1 |
| 20260506174600 | 46 | 86 | 0.0 | 0.0 | 0.00 | 0.00 | 0.00 | 87 | 1023.0 |
| 20260506173056 | 45 | 75 | 0.0 | 0.0 | 0.00 | 0.00 | 0.00 | 91 | 1023.0 |
| 20260506171603 | 45 | 59 | 0.0 | 1.0 | 0.00 | 0.00 | 0.00 | 92 | 1022.9 |
| 20260506170057 | 44 | 71 | 0.0 | 1.0 | 0.00 | 0.00 | 0.00 | 92 | 1023.1 |
| 20260506164551 | 44 | 60 | 0.0 | 0.0 | 0.00 | 0.00 | 0.00 | 93 | 1023.1 |
| 20260506163049 | 44 | 67 | 0.0 | 0.0 | 0.00 | 0.00 | 0.00 | 94 | 1023.0 |
| 20260506161548 | 44 | 50 | 0.0 | 0.0 | 0.00 | 0.00 | 0.00 | 95 | 1023.0 |
| 20260506160059 | 43 | 33 | 0.0 | 0.0 | 0.00 | 0.00 | 0.00 | 96 | 1023.0 |
| 20260506154545 | 43 | 44 | 0.0 | 0.0 | 0.00 | 0.00 | 0.00 | 96 | 1023.0 |
| 20260506153044 | 43 | 355 | 0.0 | 0.0 | 0.00 | 0.00 | 0.00 | 96 | 1022.9 |
| 20260506151543 | 42 | 12 | 0.0 | 0.0 | 0.00 | 0.00 | 0.00 | 96 | 1022.8 |
| 20260506150040 | 42 | 315 | 0.0 | 0.0 | 0.00 | 0.00 | 0.00 | 96 | 1022.6 |
| 20260506144552 | 42 | 359 | 0.0 | 0.0 | 0.00 | 0.00 | 0.00 | 96 | 1022.5 |
| 20260506143039 | 42 | 7 | 0.0 | 0.0 | 0.00 | 0.00 | 0.00 | 96 | 1022.5 |
| 20260506141538 | 42 | 17 | 0.0 | 0.0 | 0.00 | 0.00 | 0.00 | 96 | 1022.5 |